Location: Las Callecitas
(9.8750°N, 67.4611°W)
Time: 21:41:01
(UTC+00:00)

KORONAS-FOTON - Pass Details

Date: 14 April 2024
Orbit: 450 x 467 km, 82.4° (Epoch: 27 April)

Event Time Altitude Azimuth Distance (km) Brightness Sun altitude
Exits shadow 09:20:50 25° 284° (WNW) 1,021 4.8 -15.1°
Drops below altitude 10° 09:23:35 10° 333° (NNW) 1,666 6.2 -14.4°
Sets 09:25:54 0° 346° (NNW) 2,525 7.3 -13.9°
